Zurück zum Katalog

TVSAT 2

AktivKommunikationGEO
NORAD 20168·PAYLOAD·🇩🇪 Germany

Gestartet Aug 8, 1989 von Guiana Space Centre

Loading…

TLE

AktuellSource: Space-Track

Epoche: Sep 13, 2026, 17:56 UTC

1 20168U 89062A   26256.74782031 -.00000028  00000-0  00000-0 0  9996
2 20168  14.6894 355.0962 0009706 209.5249 131.7507  0.99839063135385

Verfolge TVSAT 2 in Echtzeit mit AllMySat

Download on the App Store